sat.trackr.live / text

‹ back to catalog

STARLINK-31167

NORAD 58744 · 2024-005S

PAYLOAD ACTIVE UNKNOWN

§ Identity

Operator
Country
US
Launch date
2024-01-07
Launch site
AFETR
Launch vehicle
Mass (kg)
RCS (m²)

Purposes: comms

External: N2YO · Heavens-Above · Gunter

§ Orbital elements

Epoch: 2026-05-24T23:54:17.066304Z

Period
94.27 min
Inclination
43.0038°
Eccentricity
0.0001838
Mean motion
15.27593923 rev/d
Perigee alt
481.7 km
Apogee alt
484.3 km
Semi-major
6,861.1 km
B*
7.5786e-5
RAAN
3.3693°
Arg perigee
270.5311°
Mean anomaly
89.5330°
Rev number
13,387

§ Raw data

STARLINK-311671 58744U 24005S   26144.99603086  .00001825  00000+0  75786-4 0  99992 58744  43.0038   3.3693 0001838 270.5311  89.5330 15.27593923133877

JSON: /api/v1/satellites/58744 · /tle

For live sub-satellite position, see the globe view (requires WebGL).

§ Visibility from observer

Set your observer location to see the next 7 days of passes ≥ 10°. The values pass through the URL so the page stays shareable.

No JS? Fill the form by hand. The geolocation button needs JavaScript.